Location: Eschentzwiller
(47.7125°N, 7.3981°E)
Time: 00:06:31
(UTC+00:00)

Cosmos 2228 - Pass Details

Date: 27 October 2020
Orbit: 590 x 617 km, 82.5° (Epoch: 26 November)

Event Time Altitude Azimuth Distance (km) Brightness Sun altitude
Rises 16:57:40 0° 180° (S) 2,812 6.6 -6.9°
Reaches altitude 10° 16:59:51 10° 177° (S) 1,918 5.7 -7.3°
Maximum altitude 17:04:03 65° 96° (E) 656 3.0 -8.0°
Drops below altitude 10° 17:08:18 10° 15° (NNE) 1,947 5.4 -8.7°
Sets 17:10:33 0° 12° (NNE) 2,859 6.2 -9.0°
